CW6617 Weather Reports


time (UTC)temp
C
wind
direction
speed
KPH
gust
KPH
rain 1hr
cm
rain 24hr
cm
rain mn
cm
humidity
%
barometer
mb
20260503044204 11 188 1.6 8.0 0.00 0.20 0.00 96 1009.3
20260503043705 11 189 1.6 3.2 0.00 0.20 0.00 96 1009.3
20260503043204 11 189 3.2 8.0 0.00 0.20 0.00 96 1009.3
20260503041706 11 229 1.6 4.8 0.00 0.20 0.00 96 1009.3
20260503041203 11 236 0.0 1.6 0.00 0.20 0.00 96 1009.3
20260503040704 11 236 0.0 4.8 0.00 0.20 0.00 96 1009.2
20260503034703 11 165 0.0 0.0 0.00 0.20 0.00 95 1009.5
20260503033703 11 165 0.0 0.0 0.00 0.20 0.00 95 1009.4
20260503033204 11 165 0.0 1.6 0.00 0.20 0.00 95 1009.4
20260503031705 11 165 0.0 1.6 0.00 0.20 0.00 95 1009.5
20260503030704 11 165 1.6 4.8 0.00 0.20 0.00 95 1009.4
20260503030204 11 165 1.6 4.8 0.00 0.20 0.00 95 1009.4
20260503024704 11 165 0.0 1.6 0.00 0.20 0.00 95 1009.4
20260503024203 11 165 0.0 1.6 0.00 0.20 0.00 95 1009.4
20260503023705 11 165 0.0 1.6 0.00 0.20 0.00 95 1009.4
20260503023204 11 165 0.0 8.0 0.00 0.20 0.00 95 1009.4
20260503021704 12 165 1.6 3.2 0.00 0.20 0.00 95 1009.5
20260503021204 12 165 1.6 3.2 0.00 0.20 0.00 95 1009.5
20260503020704 12 165 1.6 3.2 0.00 0.20 0.00 95 1009.5
20260503020204 12 165 1.6 8.0 0.00 0.20 0.00 95 1009.5
20260503014704 12 165 3.2 8.0 0.00 0.20 0.00 95 1009.8
20260503014203 12 165 1.6 3.2 0.00 0.20 0.00 95 1009.8
20260503013705 12 165 1.6 8.0 0.00 0.20 0.00 96 1009.9
20260503011204 12 171 1.6 3.2 0.00 0.20 0.00 95 1010.0
20260503010704 12 171 1.6 3.2 0.00 0.20 0.00 95 1010.1
20260503010206 12 171 3.2 8.0 0.00 0.20 0.00 95 1010.1
20260503004203 12 171 3.2 8.0 0.00 0.20 0.00 95 1010.4
20260503001703 12 172 1.6 4.8 0.00 0.20 0.00 96 1010.5
20260503001204 12 169 1.6 3.2 0.00 0.20 0.00 95 1010.6
20260503000704 12 169 1.6 3.2 0.00 0.20 0.00 95 1010.6
20260503000204 12 169 1.6 12.9 0.00 0.20 0.00 95 1010.7
20260502234704 12 168 3.2 9.7 0.00 0.20 0.00 95 1010.7
20260502233203 12 155 4.8 8.0 0.00 0.20 0.00 95 1010.7
20260502231703 12 148 1.6 8.0 0.00 0.20 0.00 95 1010.7
20260502231206 12 166 3.2 8.0 0.00 0.20 0.00 95 1010.7
20260502230704 12 166 3.2 11.3 0.00 0.20 0.00 95 1010.7
20260502230204 12 165 3.2 11.3 0.00 0.20 0.00 95 1010.7
20260502224704 12 167 3.2 9.7 0.00 0.20 0.20 96 1010.7
20260502224204 12 167 3.2 8.0 0.00 0.20 0.20 96 1010.7
20260502223703 12 167 3.2 4.8 0.00 0.20 0.20 96 1010.7
20260502223204 12 167 3.2 9.7 0.00 0.20 0.20 96 1010.7
20260502221704 12 168 1.6 8.0 0.00 0.20 0.20 95 1010.7
20260502221203 12 168 3.2 3.2 0.00 0.20 0.20 95 1010.8
20260502214704 12 165 8.0 11.3 0.00 0.20 0.20 95 1010.8
20260502214203 12 165 3.2 8.0 0.00 0.20 0.20 95 1010.8
20260502211703 12 166 1.6 9.7 0.00 0.20 0.20 95 1010.9
20260502210704 12 167 1.6 4.8 0.00 0.20 0.20 94 1010.9
20260502210204 12 167 0.0 9.7 0.00 0.20 0.20 94 1011.0
20260502204705 13 167 0.0 8.0 0.00 0.20 0.20 94 1011.1
20260502204203 13 167 0.0 9.7 0.00 0.20 0.20 94 1011.1
20260502203704 13 167 0.0 4.8 0.00 0.20 0.20 94 1011.2
20260502203203 13 168 3.2 9.7 0.00 0.20 0.20 94 1011.4
20260502201704 13 170 1.6 8.0 0.00 0.20 0.20 94 1011.3
20260502201203 13 170 3.2 8.0 0.00 0.20 0.20 94 1011.2
20260502200704 13 172 1.6 8.0 0.00 0.20 0.20 94 1011.2
20260502200203 13 172 0.0 0.0 0.00 0.20 0.20 94 1011.2
20260502194704 13 172 0.0 3.2 0.00 0.20 0.20 93 1011.2
20260502194203 13 171 0.0 0.0 0.00 0.20 0.20 93 1011.1
20260502193704 13 171 0.0 1.6 0.00 0.20 0.20 94 1011.0
20260502193204 13 171 0.0 11.3 0.00 0.20 0.20 94 1011.0
20260502190704 13 183 1.6 3.2 0.00 0.20 0.20 93 1011.1
20260502190203 13 188 1.6 11.3 0.00 0.20 0.20 93 1011.3
20260502184704 13 132 0.0 3.2 0.00 0.20 0.20 93 1011.3
20260502184203 13 132 0.0 1.6 0.00 0.20 0.20 93 1011.4
20260502183704 13 132 0.0 3.2 0.00 0.20 0.20 93 1011.3
20260502183204 13 130 0.0 8.0 0.00 0.20 0.20 93 1011.3
20260502181704 13 107 0.0 3.2 0.00 0.20 0.20 93 1011.3
20260502181204 13 107 0.0 4.8 0.00 0.20 0.20 93 1011.3
20260502180704 13 114 0.0 3.2 0.00 0.20 0.20 93 1011.3
20260502170203 14 142 1.6 8.0 0.10 0.20 0.20 91 1011.9
20260502164203 15 126 0.0 8.0 0.15 0.18 0.18 90 1012.5
20260502163704 15 164 0.0 3.2 0.18 0.18 0.18 89 1012.4
20260502163203 15 164 1.6 11.3 0.18 0.18 0.18 89 1012.4
20260502161703 15 163 3.2 8.0 0.15 0.15 0.15 87 1012.5
20260502161204 15 163 6.4 12.9 0.15 0.15 0.15 87 1012.7
20260502160204 16 156 9.7 20.9 0.10 0.10 0.10 85 1013.1
20260502151204 20 162 8.0 20.9 0.00 0.00 0.00 62 1012.9
20260502150703 20 167 4.8 14.5 0.00 0.00 0.00 61 1013.0
20260502150204 20 122 3.2 20.9 0.00 0.00 0.00 61 1013.0
20260502130704 22 159 9.7 19.3 0.00 0.00 0.00 50 1014.6
20260502130204 22 206 4.8 16.1 0.00 0.00 0.00 49 1014.5
20260502121704 21 171 8.0 12.9 0.00 0.00 0.00 52 1015.4
20260502121203 21 236 1.6 12.9 0.00 0.00 0.00 53 1015.6
20260502120703 22 189 8.0 19.3 0.00 0.00 0.00 52 1015.7
20260502120203 22 177 3.2 12.9 0.00 0.00 0.00 53 1015.8
20260502114703 20 344 3.2 8.0 0.00 0.00 0.00 54 1015.8
20260502113703 20 165 8.0 20.9 0.00 0.00 0.00 51 1016.2
20260502113204 21 176 3.2 12.9 0.00 0.00 0.00 54 1016.3
20260502111704 20 166 3.2 11.3 0.00 0.00 0.00 56 1016.3
20260502111203 19 183 6.4 14.5 0.00 0.00 0.00 57 1016.3
20260502110704 19 215 3.2 12.9 0.00 0.00 0.00 57 1016.4
20260502104703 18 242 1.6 8.0 0.00 0.00 0.00 63 1016.7
20260502103704 18 193 8.0 19.3 0.00 0.00 0.00 64 1017.0
20260502103204 18 165 8.0 14.5 0.00 0.00 0.00 63 1017.1
20260502101204 17 286 1.6 4.8 0.00 0.00 0.00 69 1017.2
20260502100704 16 254 3.2 8.0 0.00 0.00 0.00 71 1017.3
20260502091203 13 164 0.0 3.2 0.00 0.00 0.00 83 1017.7
20260502090704 13 164 1.6 3.2 0.00 0.00 0.00 83 1017.8
20260502090203 13 164 1.6 8.0 0.00 0.00 0.00 83 1018.0
20260502071204 10 168 0.0 3.2 0.00 0.00 0.00 94 1018.4
20260502070204 10 168 0.0 9.7 0.00 0.00 0.00 94 1018.5
20260502064703 10 163 0.0 3.2 0.00 0.00 0.00 94 1018.4
20260502064204 10 163 1.6 3.2 0.00 0.00 0.00 94 1018.4
20260502063703 10 163 3.2 8.0 0.00 0.00 0.00 94 1018.3
20260502063203 10 163 0.0 9.7 0.00 0.00 0.00 94 1018.3
20260502061704 10 161 3.2 8.0 0.00 0.00 0.00 94 1018.4
20260502061203 9 161 4.8 8.0 0.00 0.00 0.00 94 1018.5
20260502060704 9 161 1.6 3.2 0.00 0.00 0.00 94 1018.4
20260502060205 10 159 0.0 8.0 0.00 0.00 0.00 94 1018.4
20260502054704 9 159 4.8 9.7 0.00 0.00 0.00 94 1018.4
20260502054204 10 157 1.6 3.2 0.00 0.00 0.00 94 1018.3
20260502053703 10 155 1.6 3.2 0.00 0.00 0.00 94 1018.3
20260502051704 10 171 6.4 11.3 0.00 0.00 0.00 94 1018.3
20260502051203 10 179 3.2 9.7 0.00 0.00 0.00 94 1018.3
20260502050704 10 178 4.8 8.0 0.00 0.00 0.00 94 1018.3
20260502050203 10 194 1.6 4.8 0.00 0.00 0.00 94 1018.2
20260502044704 10 196 0.0 3.2 0.00 0.00 0.00 94 1018.2